Regional Weather Roundup
Issued by NWS Columbia, SC

Home | Current Version | Previous Version | Text Only | Print | Product List | Glossary On
Versions: 1 2 3 4 5 6 7 8 9 10 11 12 13 14 15 16 17 18 19 20 21 22 23 24 25 26 27 28 29 30 31 32 33 34 35 36 37 38 39 40 41 42 43 44 45 46 47 48 49 50
000
ASUS42 KCAE 181310
RWRCAE
REGIONAL WEATHER ROUNDUP
NATIONAL WEATHER SERVICE COLUMBIA SC
900 AM EDT MON JUN 18 2018

NOTE: "FAIR" INDICATES FEW OR NO CLOUDS BELOW 12,000 FEET WITH NO
SIGNIFICANT WEATHER AND/OR OBSTRUCTIONS TO VISIBILITY.

NOT ALL STATIONS ARE QUALITY CONTROLLED BY THE NATIONAL
WEATHER SERVICE. USE DATA WITH CAUTION...ESPECIALLY
DEWPOINT OBSERVATIONS.

SCZ001>056-GAZ040-063>065-077-181400-
...UPSTATE SOUTH CAROLINA...

CITY           SKY/WX    TMP DP  RH WIND       PRES   REMARKS
ANDERSON       FAIR      78  72  81 SW5       30.16R
LIBERTY        FAIR      78  72  83 CALM      30.16R
SPARTANBURG    FAIR      77  68  73 CALM      30.15R
CLEMSON        FAIR      78  70  76 CALM      30.17R
GREENVILLE     FAIR      83  70  64 W6        30.17R
GREENWOOD      FAIR      79  74  84 SW7       30.16R
GREER          FAIR      80  70  71 W3        30.16R
ROCK HILL      FAIR      81  73  76 W6        30.15R
CHESTER        FAIR      81  70  69 CALM      30.15R
LAURENS        FAIR      79  72  78 CALM      30.15S


...CENTRAL SOUTH CAROLINA...

CITY           SKY/WX    TMP DP  RH WIND       PRES   REMARKS
COLUMBIA APT   FAIR      81  75  82 S3        30.13R
COLUMBIA OWENS FAIR      81  72  74 VRB5      30.14S
ORANGEBURG     FAIR      79  70  74 W8        30.14S
NEWBERRY       FAIR      79  73  83 SW6       30.17F
AIKEN          FAIR      77  70  78 W5        30.18S
BARNWELL       FAIR      79  73  83 SW3       30.14S
MANNING        FAIR      75  66  73 W3        30.14S
CAMDEN         FAIR      82  72  69 SW7       30.13S
WINNSBORO      FAIR      81  72  74 W3        30.15R


...EASTERN AND COASTAL SOUTH CAROLINA...

CITY           SKY/WX    TMP DP  RH WIND       PRES   REMARKS
MYRTLE BEACH   FAIR      81  74  79 W8        30.13S
N MYRTLE BCH   FAIR      81  75  82 W7        30.11F
CONWAY         FAIR      79  79 100 SW7       30.12S
MARION         FAIR      79  72  78 W8        30.11F HAZE
HARTSVILLE     FAIR      81  72  74 SW6       30.11F
FLORENCE       FAIR      82  73  74 SW7       30.11F
DARLINGTON       N/A     82  74  76 W10       30.11S
CHARLESTON APT FAIR      82  76  81 W7        30.14R
MOUNT PLEASANT FAIR      82  75  78 SW3       30.14S
WALTERBORO     FAIR      79  73  83 CALM      30.15R
BEAUFORT       FAIR      82  78  88 SW8       30.14


...EASTERN GEORGIA...

CITY           SKY/WX    TMP DP  RH WIND       PRES   REMARKS
AUGUSTA BUSH F FAIR      79  73  82 CALM      30.14R
AUGUSTA DANIEL FAIR      79  74  84 CALM      30.15S
THOMSON        PTSUNNY   77  73  88 W5        30.20S
CLAXTON        FAIR      82  76  84 CALM      30.15R
SYLVANIA       FAIR      80  75  85 S3        30.15S
STATESBORO     FAIR      80  74  81 SW7       30.14S
SAVANNAH       FAIR      81  76  84 SW7       30.15R


...SOUTHERN NORTH CAROLINA...

CITY           SKY/WX    TMP DP  RH WIND       PRES   REMARKS
CHARLOTTE      FAIR      82  71  69 NW3       30.14R
MONROE         FAIR      82  71  69 VRB7      30.13R
WADESBORO      FAIR      82  71  70 NW5       30.11S
ROCKINGHAM     FAIR      81  74  78 W5        30.11S
RUTHERFORDTON  FAIR      75  73  93 CALM      30.17R
ASHEVILLE      FAIR      74  64  71 N7        30.24S

$$



USA.gov is the U.S. government's official web portal to all federal, state and local government web resources and services.